Wenatchee, WA
on Saturday, January 12, 2013

Saturday
Previous Day Next Day
Daily Summary
 ActualAverageRecord
Temperature
Mean Temperature °F 27°F  
Max Temperature 23°F 32°F 53°F (1999)
Min Temperature 3°F 22°F 1°F (1963)
Degree Days
Heating Degree Days 52 38  
Month to date heating degree days 491 465  
Since 1 July heating degree days 3154 3563  
Cooling Degree Days 0 0  
Month to date cooling degree days 0 0  
Year to date cooling degree days 0 0  
Moisture
Dew Point 11°F   
Average Humidity 75    
Maximum Humidity 84    
Minimum Humidity 62    
Precipitation
Precipitation 0.00 in 0.06 in 0.38 in (2011)
Month to date precipitation 0.87 0.84  
Year to date precipitation 0.87 0.84  
Snow
Snow 0.00 in 0.60 in in ()
Month to date snowfall 10.5 7.2  
Since 1 July snowfall 40.8 32.1  
Snow Depth 4.00 in   
Wind
Wind Speed 3 mph   
Max Wind Speed 7 mph   
Max Gust Speed mph   
Visibility 10 miles   
Events     

Key: T is trace of precipitation, MM is missing value
Source: NWS Daily Summary
Time(PST)TemperatureDew PointHumidity Pressure Visibility Wind DirectionWind SpeedGust SpeedPrecipitationEvents Conditions
12:55 AM 19.0°F 12.0°F 74% 30.31 in 10.0 miles Calm Calm - N/A   Clear
1:55 AM 15.1°F 9.0°F 77% 30.32 in 10.0 miles NE 4.6 mph - N/A   Clear
2:55 AM 17.1°F 10.9°F 77% 30.32 in 10.0 miles WNW 3.5 mph - N/A   Clear
3:55 AM 15.1°F 10.9°F 84% 30.31 in 10.0 miles Calm Calm - N/A   Clear
4:55 AM 15.1°F 10.0°F 80% 30.32 in 10.0 miles NNE 3.5 mph - N/A   Clear
5:55 AM 15.1°F 10.0°F 80% 30.33 in 10.0 miles Calm Calm - N/A   Clear
6:55 AM 14.0°F 10.0°F 84% 30.35 in 10.0 miles Calm Calm - N/A   Clear
7:55 AM 15.1°F 10.9°F 84% 30.38 in 10.0 miles Calm Calm - N/A   Clear
8:55 AM 16.0°F 10.9°F 81% 30.39 in 10.0 miles Calm Calm - N/A   Clear
9:55 AM 16.0°F 10.9°F 81% 30.40 in 10.0 miles WNW 6.9 mph - N/A   Clear
10:55 AM 19.9°F 10.9°F 68% 30.40 in 10.0 miles WNW 6.9 mph - N/A   Clear
11:55 AM 21.0°F 12.9°F 71% 30.38 in 10.0 miles WSW 6.9 mph - N/A   Clear
12:55 PM 21.9°F 12.9°F 68% 30.37 in 10.0 miles West 3.5 mph - N/A   Clear
1:55 PM 23.0°F 12.9°F 65% 30.38 in 10.0 miles WSW 4.6 mph - N/A   Clear
2:55 PM 24.1°F 12.9°F 62% 30.38 in 10.0 miles West 4.6 mph - N/A   Clear
3:55 PM 23.0°F 14.0°F 68% 30.39 in 10.0 miles West 3.5 mph - N/A   Clear
4:55 PM 21.0°F 12.0°F 68% 30.40 in 10.0 miles WNW 3.5 mph - N/A   Clear
5:55 PM 19.0°F 12.0°F 74% 30.41 in 10.0 miles NNW 3.5 mph - N/A   Clear
6:55 PM 19.9°F 12.9°F 74% 30.43 in 10.0 miles Calm Calm - N/A   Clear
7:55 PM 17.1°F 10.9°F 77% 30.43 in 10.0 miles NW 3.5 mph - N/A   Clear
8:55 PM 17.1°F 10.9°F 77% 30.43 in 10.0 miles Calm Calm - N/A   Clear
9:55 PM 16.0°F 10.9°F 81% 30.42 in 10.0 miles North 3.5 mph - N/A   Clear
10:55 PM 15.1°F 9.0°F 77% 30.42 in 10.0 miles NW 4.6 mph - N/A   Clear
11:55 PM 14.0°F 8.1°F 77% 30.43 in 10.0 miles West 6.9 mph - N/A   Mostly Cloudy
Moon Phase
Jan. 12 Jan. 18 Jan. 26 Feb. 03 Feb. 10
Sunrise:07:45 AM (PST) Moon Rise:08:00 AM (PST)1/12
Sunset:04:33 PM (PST) Moon Set:06:17 PM (PST)1/12

Copyright © 2014 The Weather Underground, Inc.